Regional Weather Roundup
Issued by NWS

Home | Current Version | Previous Version | Text Only | Print | Product List | Glossary On
Versions: 1 2 3 4 5 6 7 8 9 10 11 12 13 14 15 16 17 18 19 20 21 22 23 24 25 26 27 28 29 30 31 32 33 34 35 36 37 38 39 40 41 42 43 44 45 46 47 48 49 50
000
ASUS44 KBMX 201210
RWRAL

ALABAMA REGIONAL WEATHER ROUNDUP
NATIONAL WEATHER SERVICE BIRMINGHAM AL
700 AM CDT MON OCT 20 2014

NOTE: "FAIR" INDICATES FEW OR NO CLOUDS BELOW 12,000 FEET
WITH NO SIGNIFICANT WEATHER AND/OR OBSTRUCTIONS TO VISIBILITY.

THE REMARK "TC" DENOTES TEMPERATURE IN DEGREES CELSIUS.

ALZ001>011-014-016>018-020-201300-
NORTH ALABAMA

CITY           SKY/WX    TMP DP  RH WIND       PRES   REMARKS
MUSCLE SHOALS  FOG       44  43  96 CALM      30.11S VSB 1/4
6HR MIN TEMP:  43; 6HR MAX TEMP:  46;

HUNTSVILLE     PTCLDY    46  43  89 CALM      30.10R
6HR MIN TEMP:  45; 6HR MAX TEMP:  50;

DECATUR        CLEAR     41  40  96 N3        30.11R
6HR MIN TEMP:  40; 6HR MAX TEMP:  47;

HALEYVILLE     FAIR      38  38 100 CALM      30.12R
6HR MIN TEMP:  38; 6HR MAX TEMP:  43;

GADSDEN        CLOUDY    45  43  93 CALM      30.11S VSB<1/4
6HR MIN TEMP:  41; 6HR MAX TEMP:  45;

$$

ALZ012-013-022-023-030>036-040>044-201300-
WEST CENTRAL ALABAMA

CITY           SKY/WX    TMP DP  RH WIND       PRES   REMARKS
TUSCALOOSA     CLEAR     45  43  93 CALM      30.10R
6HR MIN TEMP:  45; 6HR MAX TEMP:  50;

$$

ALZ015-024>027-033>036-040>044-201300-
CENTRAL ALABAMA

CITY           SKY/WX    TMP DP  RH WIND       PRES   REMARKS
BIRMINGHAM     PTCLDY    47  45  93 CALM      30.11R
6HR MIN TEMP:  46; 6HR MAX TEMP:  50;

MONTGOMERY     CLEAR     48  45  89 CALM      30.09S
6HR MIN TEMP:  47; 6HR MAX TEMP:  52;

SHELBY CO ARPT CLEAR     49  47  93 CALM      30.09S
6HR MIN TEMP:  48; 6HR MAX TEMP:  51;

MAXWELL AFB    CLEAR     50  50 100 NE2       30.09R
6HR MIN TEMP:  50; 6HR MAX TEMP:  53;

GREENVILLE     FAIR      44  42  93 CALM      30.08R
6HR MIN TEMP:  44; 6HR MAX TEMP:  49;

$$

ALZ019-021-028-029-037-038-045>048-201300-
EAST CENTRAL ALABAMA

CITY           SKY/WX    TMP DP  RH WIND       PRES   REMARKS
ANNISTON       CLEAR     47  45  93 CALM      30.11R
6HR MIN TEMP:  46; 6HR MAX TEMP:  50;

ALEXANDER CITY CLEAR     49  47  94 CALM      30.10R
6HR MIN TEMP:  46; 6HR MAX TEMP:  51;

AUBURN         CLEAR     48  45  87 E3        30.12S
6HR MIN TEMP:  46; 6HR MAX TEMP:  55;

$$

ALZ051>064-201300-
SOUTHWEST ALABAMA

CITY           SKY/WX    TMP DP  RH WIND       PRES   REMARKS
MOBILE         PTCLDY    51  49  92 CALM      30.05S
6HR MIN TEMP:  48; 6HR MAX TEMP:  52;

BROOKLEY FIELD CLEAR     49  49 100 NW6       30.06S
6HR MIN TEMP:  49; 6HR MAX TEMP:  54;

EVERGREEN      CLEAR     45  42  89 CALM      30.08R
6HR MIN TEMP:  44; 6HR MAX TEMP:  49;

$$

ALZ049-050-065>069-201300-
SOUTHEAST ALABAMA

CITY           SKY/WX    TMP DP  RH WIND       PRES   REMARKS
DOTHAN         CLEAR     48  47  96 CALM      30.11R
6HR MIN TEMP:  47; 6HR MAX TEMP:  54;

OZARK          CLEAR     49  48  93 NE5       30.07R
6HR MIN TEMP:  49; 6HR MAX TEMP:  54;

TROY           CLEAR     43  41  93 CALM      30.09R
6HR MIN TEMP:  42; 6HR MAX TEMP:  48;

EUFAULA        FAIR      47  45  93 CALM      30.10R FOG
6HR MIN TEMP:  46; 6HR MAX TEMP:  50;

$$


USA.gov is the U.S. government's official web portal to all federal, state and local government web resources and services.